sat.trackr.live / text

‹ back to catalog

STARLINK-30534

NORAD 57992 · 2023-153B

PAYLOAD ACTIVE UNKNOWN

§ Identity

Operator
Country
US
Launch date
2023-10-05
Launch site
AFETR
Launch vehicle
Mass (kg)
RCS (m²)

Purposes: comms

External: N2YO · Heavens-Above · Gunter

§ Orbital elements

Epoch: 2026-09-20T02:39:03.532320Z

Period
94.27 min
Inclination
43.0040°
Eccentricity
0.0001367
Mean motion
15.27578566 rev/d
Perigee alt
482.1 km
Apogee alt
484.0 km
Semi-major
6,861.2 km
B*
2.3937e-5
RAAN
48.8020°
Arg perigee
268.2700°
Mean anomaly
91.7995°
Rev number
16,453

§ Raw data

STARLINK-305341 57992U 23153B   26263.11045755  .00000397  00000+0  23937-4 0  99992 57992  43.0040  48.8020 0001367 268.2700  91.7995 15.27578566164530

JSON: /api/v1/satellites/57992 · /tle

For live sub-satellite position, see the globe view (requires WebGL).

§ Visibility from observer

Set your observer location to see the next 7 days of passes ≥ 10°. The values pass through the URL so the page stays shareable.

No JS? Fill the form by hand. The geolocation button needs JavaScript.